This demonstration page uses our WeatherBlox Daily Observations layout. Learn more.

Left ArrowRight Arrow

Hourly Observations for December 27, 2019

Temp ( °F °C ) Dew Point ( °F °C ) Humidity (%) Winds ( mph kmh ) Pressure ( in mb ) Visibility ( mi km ) Precip ( " mm )
12:56 am 00:56 Mostly Cloudy 27 -3 23 -5 86 86 VRB 3 6 30.28 1025 10 16 0.00 0.00
1:56 am 01:56 Mostly Cloudy 27 -3 23 -5 86 86 VRB 3 6 30.29 1026 10 16 0.00 0.00
2:56 am 02:56 Mostly Clear 25 -4 23 -5 93 93 VRB 3 6 30.31 1026 10 16 0.00 0.00
3:56 am 03:56 Mostly Clear 25 -4 23 -5 93 93 VRB 3 6 30.32 1027 10 16 0.00 0.00
4:56 am 04:56 Mostly Clear 25 -4 21 -6 86 86 VRB 3 6 30.33 1027 10 16 0.00 0.00
5:56 am 05:56 Clear 23 -5 21 -6 93 93 VRB 3 6 30.33 1027 10 16 0.00 0.00
6:56 am 06:56 Clear 23 -5 21 -6 93 93 VRB 7 11 30.32 1027 10 16 0.00 0.00
7:56 am 07:56 Sunny with Mist and Fog 23 -5 21 -6 93 93 Calm 30.34 1028 6 10 0.00 0.00
8:56 am 08:56 Partly Cloudy with Mist and Fog 25 -4 21 -6 86 86 Calm 30.34 1028 5 8 0.00 0.00
9:56 am 09:56 Sunny 28 -2 23 -5 80 80 Calm 30.33 1027 10 16 0.00 0.00
10:56 am 10:56 Sunny 32 0 27 -3 80 80 Calm 30.32 1027 10 16 0.00 0.00
11:56 am 11:56 Sunny 36 2 27 -3 70 70 SE 8 13 30.28 1026 10 16 0.00 0.00
12:56 pm 12:56 Sunny 39 4 28 -2 65 65 S 5 7 30.28 1025 10 16 0.00 0.00
1:56 pm 13:56 Mostly Sunny 39 4 27 -3 61 61 E 5 7 30.22 1023 10 16 0.00 0.00
2:56 pm 14:56 Sunny 39 4 28 -2 65 65 ENE 3 6 30.21 1023 10 16 0.00 0.00
3:56 pm 15:56 Cloudy 39 4 28 -2 65 65 Calm 30.21 1023 10 16 0.00 0.00
4:56 pm 16:56 Cloudy 39 4 25 -4 56 56 E 5 7 30.21 1023 10 16 0.00 0.00
5:56 pm 17:56 Cloudy 39 4 28 -2 65 65 ENE 6 9 30.19 1022 10 16 0.00 0.00
6:56 pm 18:56 Cloudy 37 3 27 -3 65 65 E 7 11 30.17 1022 10 16 0.00 0.00
7:56 pm 19:56 Cloudy 39 4 27 -3 61 61 E 9 15 30.14 1021 10 16 0.00 0.00
8:56 pm 20:56 Cloudy 39 4 27 -3 61 61 E 13 20 30.11 1020 10 16 0.00 0.00
9:56 pm 21:56 Cloudy 39 4 28 -2 65 65 E 10 17 30.08 1019 10 16 0.00 0.00
10:56 pm 22:56 Cloudy 39 4 28 -2 65 65 ESE 15 24 30.07 1018 10 16 0.00 0.00
11:13 pm 23:13 Cloudy with Light Rain 39 4 28 -2 65 65 ESE 14 22 30.06 1018 8 13 0.00 0.00
11:56 pm 23:56 Cloudy with Light Rain 37 3 32 0 81 81 E 10 17 30.03 1017 8 13 0.02 0.51

Powered by AerisWeather